This is the latest recevied weather packets stored in our database for station/object ZL2VAX. If no packets are shown the sender has not sent any weather packets the latest 10 day(s).
| Time | Temp. | Humidity | Pressure | Rain* | Wind** | Luminosity | Snow |
|---|---|---|---|---|---|---|---|
| 1777384519 | 12.78° C | 87% | 1028 hPa | 0 mm | - | - | - |
| 1777383917 | 12.78° C | 87% | 1028.1 hPa | 0 mm | - | - | - |
| 1777382169 | 13.33° C | 88% | 1028 hPa | 0 mm | - | - | - |
| 1777378553 | 13.89° C | 90% | 1027.9 hPa | 0 mm | - | - | - |
| 1777371322 | 14.44° C | 89% | 1028.3 hPa | 0 mm | - | - | - |
| 1777368973 | 14.44° C | 90% | 1028.1 hPa | 0 mm | - | - | - |
| 1777364753 | 13.89° C | 90% | 1027.7 hPa | 0 mm | - | - | - |
| 1777363590 | 13.33° C | 88% | 1027.6 hPa | 0 mm | - | - | - |
| 1777362343 | 13.89° C | 85% | 1027.5 hPa | 0 mm | - | - | - |
| 1777355794 | 14.44° C | 83% | 1026.2 hPa | 0 mm | - | - | - |
| 1777352159 | 16.11° C | 77% | 1025.5 hPa | 0 mm | - | - | - |
| 1777350974 | 18.33° C | 72% | 1025.5 hPa | 0 mm | - | - | - |
| 1777350376 | 18.33° C | 70% | 1025.4 hPa | 0 mm | - | - | - |
| 1777349146 | 18.89° C | 67% | 1025.3 hPa | 0 mm | - | - | - |
| 1777348563 | 18.33° C | 71% | 1025.4 hPa | 0 mm | - | - | - |
| 1777347368 | 18.89° C | 69% | 1025.4 hPa | 0 mm | - | - | - |
| 1777340137 | 18.89° C | 71% | 1025.6 hPa | 0 mm | - | - | - |
| 1777338330 | 17.78° C | 72% | 1025.6 hPa | 0 mm | - | - | - |
| 1777336565 | 17.78° C | 72% | 1025.8 hPa | 0 mm | - | - | - |
| 1777335316 | 17.22° C | 74% | 1025.9 hPa | 0 mm | - | - | - |
| 1777334171 | 17.22° C | 74% | 1026 hPa | 0 mm | - | - | - |
| 1777331157 | 17.22° C | 74% | 1026.5 hPa | 0 mm | - | - | - |
| 1777324530 | 10° C | 97% | 1026.7 hPa | 0 mm | - | - | - |
| 1777318563 | 6.11° C | 97% | 1025.9 hPa | 0 mm | - | - | - |
| 1777317379 | 6.67° C | 98% | 1025.7 hPa | 0 mm | - | - | - |
* Rain latest hour (hover to see other rain measurements)
** Current wind speed in m/s (hover to see current wind gust speed)